Regional Weather Roundup
Issued by NWS

Home | Current Version | Previous Version | Graphics & Text | Print | Product List | Glossary On
Versions: 1 2 3 4 5 6 7 8 9 10 11 12 13 14 15 16 17 18 19 20 21 22 23 24 25 26 27 28 29 30 31 32 33 34 35 36 37 38 39 40 41 42 43 44 45 46 47 48 49 50
000
ASUS45 KBOU 021107
RWRCO

WEATHER ROUNDUP FOR COLORADO
NATIONAL WEATHER SERVICE DENVER/BOULDER CO
500 AM MDT WED SEP 02 2015

NOTE: "FAIR" INDICATES FEW OR NO CLOUDS BELOW 12000 FEET WITH NO
SIGNIFICANT WEATHER AND/OR OBSTRUCTIONS TO VISIBILITY.

COZ001>005-013-030-031-021200-
...NORTHWEST COLORADO...

CITY           SKY/WX    TMP DP  RH WIND       PRES   REMARKS
CRAIG          CLEAR     43  40  89 W5        30.23S
HAYDEN         NOT AVBL
MEEKER         CLEAR     49  44  83 E7        30.24S
MOUNT WERNER   NOT AVBL
STEAMBOAT SPGS CLEAR     46  41  81 CALM      30.28S
WALDEN         CLEAR     41  36  81 E8        30.33S
$$

COZ006>008-011-021200-
...WEST CENTRAL VALLEYS...

CITY           SKY/WX    TMP DP  RH WIND       PRES   REMARKS
GRAND JUNCTION PTCLDY    64  49  57 E10       30.14S
MONTROSE       CLEAR     55  48  77 S3        30.23S
EAGLE          PTCLDY    46  46 100 CALM      30.33S
RIFLE          CLEAR     52  49  89 E5        30.23S
DELTA          NOT AVBL
NUCLA          CLEAR     59  45  58 SE7       30.25S
$$

COZ017>023-064>068-021200-
...SOUTHWEST COLORADO...

CITY           SKY/WX    TMP DP  RH WIND       PRES   REMARKS
DURANGO        MOCLDY    54  44  69 CALM      30.27R
CORTEZ         CLEAR     53  46  77 E5        30.21F
PAGOSA SPRINGS MOCLDY    55  46  72 CALM      30.34S
TELLURIDE      PTCLDY    50  45  84 E3        30.45F
WOLF CREEK PAS NOT AVBL
$$

COZ009-010-012-014-032>034-037-058>063-021200-
...CENTRAL COLORADO...

CITY           SKY/WX    TMP DP  RH WIND       PRES   REMARKS
ASPEN          CLEAR     46  43  89 SW7       30.35S
BUENA VISTA    NOT AVBL
COPPER MTN     PTCLDY    46  32  57 W18G25    30.59S
BERTHOUD PASS  FAIR      37  27  65 NW33G49   30.58F
COTTONWOOD PAS CLEAR     52  39  62 NW3       30.46F
GUNNISON       CLEAR     46  43  87 CALM      30.40F
KREMMLING      CLEAR     43  39  87 CALM      30.36S
LEADVILLE      PTCLDY    37  37 100 E5        30.46F
MONARCH PASS   PTCLDY    41  36  81 W22       30.69S
SALIDA         CLEAR     52  45  76 W5        30.41S
SUNLIGHT       CLOUDY    46  41  81 CALM      30.55S
WILKERSON PASS PTCLDY    45  34  65 W8        30.56R
$$

COZ069>075-021200-
...SAN LUIS VALLEY/SANGRE DE CRISTO MOUNTAINS...

CITY           SKY/WX    TMP DP  RH WIND       PRES   REMARKS
ALAMOSA        MOCLDY    45  42  89 S6        30.32F
LA VETA PASS   PTCLDY    48  39  71 S13G20    30.46F
SAGUACHE       CLOUDY    54  45  71 NW15      30.35F
$$

COZ035-036-038>040-021200-
...NORTHERN COLORADO FRONT RANGE...

CITY           SKY/WX    TMP DP  RH WIND       PRES   REMARKS
DENVER INTL AP MOCLDY    65  45  48 SW8       30.07S
DMNS CITY PARK   N/A     65  46  50 SE8       30.06F
AURORA         MOCLDY    65  44  46 SW9       30.09S
FRONT RANGE AP NOT AVBL
ERIE MUNI ARPT PTCLDY    58  48  68 CALM      30.05F
BOULDER MUN AP PTCLDY    68  45  42 SW3       30.05F
CENTENNIAL     MOCLDY    67  42  40 SW15      30.11S
BROOMFIELD     PTCLDY    70  37  30 W13G22    30.09S
FORT COLLINS   PTCLDY    61  45  55 S3        30.06F
LONGMONT       PTCLDY    60  46  59 CALM      30.07S
$$

COZ041-046-047-076>085-087-088-021200-
...PIKES PEAK/PALMER DIVIDE AND SOUTHERN FOOTHILLS...

CITY           SKY/WX    TMP DP  RH WIND       PRES   REMARKS
COLO. SPRINGS  PTCLDY    63  45  51 NW9       30.16F
A. F. ACADEMY  CLEAR     69  37  30 VRB3      30.17F
ELLICOTT       CLEAR    N/A N/A N/A N3        30.13F
FALCON         CLEAR     60  41  49 MISG      30.20S
FORT CARSON    CLEAR     59  47  64 W2        30.12F
LIMON          MOCLDY    55  50  83 N6        30.07F
MONUMENT HILL  PTCLDY    57  41  54 W12       30.21S
TRINIDAD       CLEAR     57  45  64 SW8       30.16R
$$

COZ042>045-048>051-090-091-021200-
...NORTHEAST COLORADO...

CITY           SKY/WX    TMP DP  RH WIND       PRES   REMARKS
GREELEY ARPT   PTCLDY    55  48  76 NW5       30.04S
AKRON          MOCLDY    63  48  58 W8        30.02F
BURLINGTON     PTCLDY    61  55  81 W7        30.00F
WRAY           CLOUDY    61  54  75 W8        29.96S
STERLING       NOT AVBL
HOLYOKE        CLEAR     61  54  77 W6        29.95S
FORT MORGAN    NOT AVBL
$$

COZ086-089-092>099-021200-
...SOUTHEAST COLORADO...

CITY           SKY/WX    TMP DP  RH WIND       PRES   REMARKS
PUEBLO         CLEAR     66  48  52 VRB3      30.06S
LA JUNTA       CLEAR     65  51  60 W12       30.01S
LAMAR          PTCLDY    60  53  77 SW5       29.98R
SPRINGFIELD      N/A     64  53  67 SW8       30.04R
$$




USA.gov is the U.S. government's official web portal to all federal, state and local government web resources and services.